| time (UTC) | temp C | wind direction | speed KPH | gust KPH | rain 1hr cm | rain 24hr cm | rain mn cm | humidity % | barometer mb |
| 20260504050517 | 11 | 0.0 | 0.0 | 0.00 | 0.03 | 0.00 | 58 | 1008.7 | |
| 20260504045517 | 11 | 0.0 | 0.0 | 0.00 | 0.03 | 0.00 | 58 | 1008.8 | |
| 20260504044517 | 11 | 248 | 1.6 | 3.2 | 0.00 | 0.03 | 0.00 | 57 | 1008.9 |
| 20260504043517 | 12 | 225 | 1.6 | 3.2 | 0.00 | 0.03 | 0.00 | 56 | 1008.9 |
| 20260504042516 | 12 | 248 | 1.6 | 4.8 | 0.00 | 0.03 | 0.00 | 55 | 1008.9 |
| 20260504041517 | 12 | 225 | 3.2 | 4.8 | 0.00 | 0.03 | 0.00 | 54 | 1008.7 |
| 20260504040516 | 12 | 225 | 1.6 | 3.2 | 0.00 | 0.03 | 0.00 | 55 | 1008.8 |
| 20260504035517 | 12 | 225 | 1.6 | 6.4 | 0.00 | 0.03 | 0.03 | 55 | 1008.7 |
| 20260504034517 | 12 | 248 | 1.6 | 8.0 | 0.00 | 0.03 | 0.03 | 56 | 1008.8 |
| 20260504033516 | 12 | 225 | 1.6 | 6.4 | 0.00 | 0.03 | 0.03 | 56 | 1008.8 |
| 20260504032517 | 12 | 0.0 | 1.6 | 0.00 | 0.03 | 0.03 | 56 | 1008.8 | |
| 20260504031517 | 12 | 225 | 1.6 | 4.8 | 0.00 | 0.03 | 0.03 | 56 | 1008.8 |
| 20260504030517 | 12 | 248 | 1.6 | 3.2 | 0.00 | 0.03 | 0.03 | 57 | 1008.9 |
| 20260504025517 | 12 | 0.0 | 3.2 | 0.00 | 0.03 | 0.03 | 58 | 1008.8 | |
| 20260504024516 | 12 | 225 | 1.6 | 6.4 | 0.00 | 0.03 | 0.03 | 58 | 1008.9 |
| 20260504023516 | 12 | 0.0 | 3.2 | 0.00 | 0.03 | 0.03 | 60 | 1009.0 | |
| 20260504022517 | 12 | 248 | 1.6 | 3.2 | 0.00 | 0.03 | 0.03 | 60 | 1009.1 |
| 20260504021516 | 11 | 248 | 1.6 | 8.0 | 0.00 | 0.03 | 0.03 | 61 | 1009.2 |
| 20260504020517 | 11 | 0.0 | 0.0 | 0.00 | 0.03 | 0.03 | 64 | 1009.2 | |
| 20260504015516 | 11 | 0.0 | 0.0 | 0.00 | 0.03 | 0.03 | 68 | 1009.2 | |
| 20260504014516 | 10 | 0.0 | 0.0 | 0.00 | 0.03 | 0.03 | 70 | 1009.1 | |
| 20260504013516 | 10 | 0.0 | 0.0 | 0.00 | 0.03 | 0.03 | 75 | 1009.1 | |
| 20260504012516 | 10 | 270 | 1.6 | 6.4 | 0.00 | 0.03 | 0.03 | 79 | 1009.3 |
| 20260504011517 | 9 | 0.0 | 0.0 | 0.03 | 0.03 | 0.03 | 86 | 1009.3 | |
| 20260504010516 | 9 | 0.0 | 0.0 | 0.03 | 0.03 | 0.03 | 85 | 1009.6 | |
| 20260504005516 | 9 | 0.0 | 0.0 | 0.03 | 0.03 | 0.03 | 84 | 1009.5 | |
| 20260504004516 | 9 | 0.0 | 0.0 | 0.03 | 0.03 | 0.03 | 83 | 1009.5 | |
| 20260504003516 | 10 | 0.0 | 0.0 | 0.03 | 0.03 | 0.03 | 83 | 1009.8 | |
| 20260504002516 | 10 | 0.0 | 3.2 | 0.03 | 0.03 | 0.03 | 80 | 1010.0 | |
| 20260504001517 | 10 | 0.0 | 4.8 | 0.00 | 0.00 | 0.00 | 74 | 1010.0 | |
| 20260504000516 | 10 | 0.0 | 6.4 | 0.00 | 0.00 | 0.00 | 73 | 1009.8 | |
| 20260503235516 | 10 | 293 | 3.2 | 9.7 | 0.00 | 0.00 | 0.00 | 72 | 1009.6 |
| 20260503234516 | 11 | 293 | 3.2 | 11.3 | 0.00 | 0.00 | 0.00 | 71 | 1009.6 |
| 20260503233516 | 11 | 270 | 6.4 | 20.9 | 0.00 | 0.00 | 0.00 | 67 | 1009.7 |
| 20260503232516 | 12 | 270 | 4.8 | 11.3 | 0.00 | 0.00 | 0.00 | 60 | 1009.4 |
| 20260503231516 | 12 | 270 | 4.8 | 14.5 | 0.00 | 0.00 | 0.00 | 56 | 1009.3 |
| 20260503230516 | 12 | 270 | 3.2 | 8.0 | 0.00 | 0.00 | 0.00 | 53 | 1009.0 |
| 20260503225517 | 12 | 248 | 4.8 | 14.5 | 0.00 | 0.00 | 0.00 | 51 | 1009.0 |
| 20260503224516 | 13 | 248 | 4.8 | 11.3 | 0.00 | 0.00 | 0.00 | 50 | 1008.8 |
| 20260503223516 | 13 | 270 | 6.4 | 17.7 | 0.00 | 0.00 | 0.00 | 48 | 1008.8 |
| 20260503222516 | 13 | 270 | 3.2 | 9.7 | 0.00 | 0.00 | 0.00 | 49 | 1008.8 |
| 20260503221517 | 13 | 248 | 1.6 | 4.8 | 0.00 | 0.00 | 0.00 | 48 | 1008.7 |
| 20260503220516 | 13 | 248 | 1.6 | 6.4 | 0.00 | 0.00 | 0.00 | 47 | 1008.6 |
| 20260503215516 | 13 | 293 | 3.2 | 8.0 | 0.00 | 0.00 | 0.00 | 49 | 1009.0 |
| 20260503214516 | 13 | 270 | 1.6 | 6.4 | 0.00 | 0.00 | 0.00 | 50 | 1009.3 |
| 20260503213516 | 13 | 248 | 3.2 | 8.0 | 0.00 | 0.00 | 0.00 | 47 | 1009.4 |
| 20260503212516 | 13 | 293 | 4.8 | 9.7 | 0.00 | 0.00 | 0.00 | 45 | 1009.1 |
| 20260503211516 | 13 | 270 | 3.2 | 11.3 | 0.00 | 0.00 | 0.00 | 44 | 1008.9 |
| 20260503210516 | 14 | 270 | 3.2 | 8.0 | 0.00 | 0.00 | 0.00 | 44 | 1008.8 |
| 20260503205516 | 14 | 248 | 3.2 | 11.3 | 0.00 | 0.00 | 0.00 | 43 | 1008.9 |
| 20260503204516 | 14 | 270 | 3.2 | 9.7 | 0.00 | 0.00 | 0.00 | 42 | 1009.0 |
| 20260503203516 | 14 | 225 | 3.2 | 12.9 | 0.00 | 0.00 | 0.00 | 41 | 1009.2 |
| 20260503202516 | 14 | 293 | 4.8 | 16.1 | 0.00 | 0.00 | 0.00 | 41 | 1009.2 |
| 20260503201516 | 14 | 293 | 4.8 | 9.7 | 0.00 | 0.00 | 0.00 | 41 | 1009.4 |
| 20260503200516 | 14 | 248 | 3.2 | 6.4 | 0.00 | 0.00 | 0.00 | 41 | 1009.6 |
| 20260503195516 | 14 | 270 | 6.4 | 20.9 | 0.00 | 0.00 | 0.00 | 40 | 1009.8 |
| 20260503194515 | 14 | 270 | 3.2 | 8.0 | 0.00 | 0.00 | 0.00 | 40 | 1009.9 |
| 20260503193516 | 13 | 293 | 3.2 | 11.3 | 0.00 | 0.00 | 0.00 | 42 | 1010.2 |
| 20260503192516 | 13 | 248 | 4.8 | 12.9 | 0.00 | 0.00 | 0.00 | 40 | 1010.3 |
| 20260503191515 | 13 | 293 | 4.8 | 17.7 | 0.00 | 0.00 | 0.00 | 44 | 1010.5 |
| 20260503190515 | 13 | 270 | 4.8 | 11.3 | 0.00 | 0.00 | 0.00 | 42 | 1010.8 |
| 20260503185516 | 12 | 248 | 3.2 | 16.1 | 0.00 | 0.00 | 0.00 | 45 | 1010.9 |
| 20260503184516 | 12 | 270 | 3.2 | 9.7 | 0.00 | 0.00 | 0.00 | 46 | 1010.9 |
| 20260503183516 | 12 | 315 | 3.2 | 6.4 | 0.00 | 0.00 | 0.00 | 54 | 1011.2 |
| 20260503182515 | 12 | 0.0 | 4.8 | 0.00 | 0.00 | 0.00 | 57 | 1011.4 | |
| 20260503181515 | 12 | 0.0 | 3.2 | 0.00 | 0.00 | 0.00 | 53 | 1011.5 | |
| 20260503180516 | 12 | 0.0 | 3.2 | 0.00 | 0.00 | 0.00 | 54 | 1011.6 | |
| 20260503175515 | 12 | 23 | 1.6 | 3.2 | 0.00 | 0.00 | 0.00 | 55 | 1011.6 |
| 20260503174515 | 12 | 45 | 1.6 | 6.4 | 0.00 | 0.00 | 0.00 | 53 | 1011.8 |
| 20260503173515 | 11 | 338 | 3.2 | 8.0 | 0.00 | 0.00 | 0.00 | 53 | 1011.9 |
| 20260503172515 | 12 | 315 | 3.2 | 6.4 | 0.00 | 0.00 | 0.00 | 50 | 1011.9 |
| 20260503171517 | 12 | 315 | 3.2 | 9.7 | 0.00 | 0.00 | 0.00 | 52 | 1011.9 |
| 20260503170517 | 12 | 293 | 3.2 | 11.3 | 0.00 | 0.00 | 0.00 | 48 | 1011.8 |
| 20260503150517 | 10 | 293 | 3.2 | 9.7 | 0.00 | 0.00 | 0.00 | 51 | 1013.2 |
| 20260503130517 | 6 | 293 | 1.6 | 6.4 | 0.00 | 0.00 | 0.00 | 59 | 1014.1 |
| 20260503110516 | 2 | 0.0 | 0.0 | 0.00 | 0.00 | 0.00 | 84 | 1013.9 | |
| 20260503081516 | 2 | 0.0 | 0.0 | 0.00 | 0.00 | 0.00 | 84 | 1013.7 | |
| 20260503080517 | 2 | 0.0 | 0.0 | 0.00 | 0.00 | 0.00 | 84 | 1013.6 | |
| 20260503072516 | 2 | 0.0 | 0.0 | 0.00 | 0.03 | 0.00 | 81 | 1013.6 | |
| 20260503071516 | 3 | 0.0 | 0.0 | 0.00 | 0.03 | 0.00 | 81 | 1013.6 | |
| 20260503070516 | 3 | 0.0 | 0.0 | 0.00 | 0.03 | 0.00 | 80 | 1013.6 | |
| 20260503054516 | 4 | 0.0 | 0.0 | 0.00 | 0.03 | 0.00 | 77 | 1013.9 |